Left ArrowRight Arrow

Hourly Observations for July 11, 2017

Temp ( °F °C ) Dew Point ( °F °C ) Humidity (%) Winds ( mph kmh ) Pressure ( in mb ) Visibility ( mi km ) Precip ( " mm )
12:37 am 00:37 Cloudy 79 26.1 70 21.1 74 74 W 6 9 30.00 1016 10 16 0.00 0.00
12:48 am 00:48 Cloudy 79 26 70 21 74 74 W 6 9 30.00 1016 10 16 0.00 0.00
12:53 am 00:53 Cloudy 79 26.1 70 21.1 74 74 W 6 9 29.98 1015 10 16 0.00 0.00
1:53 am 01:53 Cloudy 79 26.1 71 21.7 77 77 W 7 11 29.98 1015 10 16 0.00 0.00
2:22 am 02:22 Partly Cloudy 79 26.1 71 21.7 77 77 WSW 7 11 29.97 1015 10 16 0.00 0.00
2:34 am 02:34 Mostly Cloudy 79 26.1 71 21.7 77 77 W 6 9 29.97 1015 10 16 0.00 0.00
2:41 am 02:41 Partly Cloudy 79 26.1 70 21.1 74 74 W 6 9 29.97 1015 10 16 0.00 0.00
2:50 am 02:50 Mostly Cloudy 79 26 72 22 79 79 W 6 9 29.97 1015 10 16 0.00 0.00
2:53 am 02:53 Mostly Cloudy 79 26.1 71 21.7 77 77 W 6 9 29.97 1015 10 16 0.00 0.00
3:45 am 03:45 Partly Cloudy 79 26.1 70 21.1 74 74 W 6 9 29.97 1015 10 16 0.00 0.00
3:53 am 03:53 Mostly Cloudy 79 26.1 70 21.1 74 74 W 5 7 29.96 1015 10 16 0.00 0.00
4:53 am 04:53 Mostly Cloudy 79 26.1 70 21.1 74 74 NNW 3 6 29.97 1015 10 16 0.00 0.00
5:53 am 05:53 Partly Cloudy 77 25 69 20.6 77 77 E 5 7 29.98 1015 10 16 0.00 0.00
6:49 am 06:49 Mostly Cloudy 79 26 70 21 74 74 Calm 30.00 1016 10 16 0.00 0.00
6:53 am 06:53 Partly Cloudy 79 26.1 69 20.6 72 72 ESE 3 6 29.99 1016 10 16 0.00 0.00
7:53 am 07:53 Partly Cloudy 79 26.1 70 21.1 74 74 WSW 3 6 30.00 1016 10 16 0.00 0.00
8:53 am 08:53 Partly Cloudy 81 27.2 71 21.7 72 72 WSW 6 9 30.00 1016 10 16 0.00 0.00
9:53 am 09:53 Partly Cloudy 82 27.8 71 21.7 69 69 SW 9 15 30.00 1016 10 16 0.00 0.00
10:53 am 10:53 Partly Cloudy 84 28.9 71 21.7 65 65 SW 10 17 30.00 1016 10 16 0.00 0.00
11:53 am 11:53 Partly Cloudy 84 28.9 71 21.7 65 65 SW 13 20 29.99 1016 10 16 0.00 0.00
12:53 pm 12:53 Sunny 85 29.4 70 21.1 61 61 S 12 19 29.98 1015 10 16 0.00 0.00
1:53 pm 13:53 Partly Cloudy 86 30 68 20 55 55 SSW 10 17 29.97 1015 10 16 0.00 0.00
2:53 pm 14:53 Partly Cloudy 85 29.4 69 20.6 59 59 SW 13 20 29.96 1015 10 16 0.00 0.00
3:53 pm 15:53 Partly Cloudy 87 30.6 69 20.6 55 55 SSW 10 17 29.96 1015 10 16 0.00 0.00
4:53 pm 16:53 Mostly Cloudy 84 28.9 69 20.6 61 61 SW 8 13 29.97 1015 10 16 0.00 0.00
5:53 pm 17:53 Mostly Cloudy 84 28.9 70 21.1 63 63 SW 7 11 29.98 1015 10 16 0.00 0.00
6:53 pm 18:53 Partly Cloudy 82 27.8 70 21.1 67 67 SW 7 11 29.99 1016 10 16 0.00 0.00
7:53 pm 19:53 Mostly Cloudy 81 27.2 70 21.1 69 69 WSW 6 9 30.00 1016 10 16 0.00 0.00
8:53 pm 20:53 Mostly Cloudy 81 27.2 70 21.1 69 69 WSW 6 9 30.02 1017 10 16 0.00 0.00
9:53 pm 21:53 Cloudy 81 27.2 70 21.1 69 69 WSW 5 7 30.03 1017 10 16 0.00 0.00
10:53 pm 22:53 Cloudy 81 27.2 71 21.7 72 72 SW 6 9 30.04 1017 10 16 0.00 0.00
11:53 pm 23:53 Cloudy 81 27.2 70 21.1 69 69 SSW 7 11 30.03 1017 10 16 0.00 0.00

Powered by Vaisala Xweather